HJ3GNC-10 Weather Reports


time (UTC)temp
C
wind
direction
speed
KPH
gust
KPH
rain 1hr
cm
rain 24hr
cm
rain mn
cm
humidity
%
barometer
mb
20260504224620 15 70 0.0 0.0 0.00 0.00 0.00 73 1015.0
20260504223038 16 112 0.0 0.0 0.00 0.00 0.00 73 1015.0
20260504215912 16 60 0.0 0.0 0.00 0.00 0.00 73 1014.0
20260504214325 17 60 0.0 0.0 0.00 0.00 0.00 72 1014.0
20260504212742 17 60 0.0 0.0 0.00 0.00 0.00 71 1014.0
20260504211158 17 60 0.0 0.0 0.00 0.00 0.00 69 1014.0
20260504205609 17 112 0.0 0.0 0.00 0.00 0.00 68 1014.0
20260504204017 17 112 0.0 0.0 0.00 0.00 0.00 68 1014.0
20260504202420 17 267 0.0 0.0 0.00 0.00 0.00 68 1014.0
20260504200821 17 267 0.0 0.0 0.00 0.00 0.00 68 1014.0
20260504195237 17 267 0.0 0.0 0.00 0.00 0.00 68 1014.0
20260504193655 18 267 0.0 0.0 0.00 0.00 0.00 68 1014.0
20260504192108 18 0 0.0 0.0 0.00 0.00 0.00 68 1014.0
20260504190526 18 0 0.0 0.0 0.00 0.00 0.00 67 1014.0
20260504184944 18 150 0.0 0.0 0.00 0.00 0.00 67 1014.0
20260504183411 18 150 0.0 0.0 0.00 0.00 0.00 67 1014.0
20260504181818 18 150 0.0 0.0 0.00 0.00 0.00 68 1015.0
20260504180236 18 120 0.0 0.0 0.00 0.00 0.00 69 1015.0
20260504174653 18 120 0.0 0.0 0.00 0.00 0.00 71 1015.0
20260504173107 18 120 0.0 0.0 0.00 0.00 0.00 74 1015.0
20260504171527 18 120 0.0 0.0 0.00 0.00 0.00 77 1016.0
20260504150618 18 207 0.0 0.0 0.00 0.00 0.00 99 1016.0
20260504140710 13 0 0.0 0.0 0.00 0.00 0.00 99 1017.0
20260504100409 12 0 0.0 0.0 0.00 0.00 0.00 99 1018.0
20260504081305 12 20 0.0 0.0 0.00 0.00 0.00 99 1018.0
20260504050131 12 280 0.0 0.0 0.00 0.00 0.00 99 1020.0
20260504044546 12 105 0.0 0.0 0.00 0.00 0.00 98 1020.0
20260504043001 12 106 0.0 0.0 0.00 0.00 0.00 98 1020.0
20260504041418 12 106 0.0 0.0 0.00 0.00 0.00 98 1020.0
20260504035823 12 340 0.0 0.0 0.00 0.00 0.00 98 1020.0
20260504034236 13 340 0.0 0.0 0.00 0.00 0.00 98 1020.0
20260504032648 13 340 0.0 0.0 0.00 0.00 0.00 98 1020.0
20260504031103 13 340 0.0 0.0 0.00 0.00 0.00 98 1020.0
20260504025434 13 0 0.0 0.0 0.00 0.00 0.00 98 1020.0
20260504023839 13 0 0.0 0.0 0.00 0.00 0.00 98 1019.0
20260504022234 13 0 0.0 0.0 0.00 0.00 0.00 98 1019.0
20260504020645 13 0 0.0 0.0 0.00 0.00 0.00 97 1019.0
20260504015051 13 0 0.0 0.0 0.00 0.00 0.00 95 1019.0
20260504011805 14 0 0.0 0.0 0.00 0.00 0.00 93 1018.0
20260504010205 14 250 0.0 0.0 0.00 0.00 0.00 91 1018.0
20260504001042 14 250 0.0 0.0 0.00 0.00 0.00 87 1017.0
20260503235431 14 270 0.0 0.0 0.00 0.00 0.00 83 1017.0
20260503233831 15 270 0.0 0.0 0.00 0.00 0.00 83 1016.0
20260503232241 15 270 0.0 0.0 0.00 0.00 0.00 82 1015.0
20260503230654 15 270 0.0 0.0 0.00 0.00 0.00 79 1015.0
20260503225058 15 134 0.0 0.0 0.00 0.00 0.00 77 1015.0